Location: Newark
(49.7697°N, 2.7094°E)
Time: 15:27:53
(UTC+00:00)

RS-15 - Visible Passes

Search period start: 04 April 2020 00:00
Search period end: 14 April 2020 00:00
Orbit: 1898 x 2146 km, 64.8° (Epoch: 03 April)

Date Brightness Start Highest point End Pass type
(mag) Time Alt. Az. Time Alt. Az. Time Alt. Az.
04 Apr 9.4 00:07:09 10° WNW 00:13:16 17° W 00:14:59 16° WSW visible
04 Apr 8.4 19:03:26 10° NW 19:14:06 49° NNE 19:24:52 11° ESE visible
04 Apr 8.0 21:16:17 10° NW 21:27:22 76° WSW 21:32:39 39° SSE visible
04 Apr 9.2 23:30:01 10° NW 23:37:54 23° W 23:40:24 21° WSW visible
05 Apr 7.9 20:40:11 10° NW 20:51:21 90° SW 20:58:05 31° SE visible
05 Apr 8.9 22:53:21 10° NW 23:02:25 30° WSW 23:05:52 26° SW visible
06 Apr 8.0 20:04:05 10° NW 20:15:15 77° NE 20:23:34 23° SE visible
06 Apr 8.7 22:16:57 10° NW 22:26:51 39° WSW 22:31:20 29° SSW visible
07 Apr 8.1 19:27:58 10° NW 19:39:02 66° NE 19:49:04 15° ESE visible
07 Apr 8.5 21:40:41 10° NW 21:51:09 49° WSW 21:56:51 29° SSW visible
07 Apr 9.8 23:59:07 10° W 00:00:30 10° W 00:01:53 10° W visible
08 Apr 8.3 18:51:49 10° NW 19:02:42 57° NE 19:13:59 10° ESE visible
08 Apr 8.3 21:04:31 10° NW 21:15:22 61° WSW 21:22:24 27° S visible
08 Apr 9.6 23:19:30 10° WNW 23:25:16 16° W 23:30:11 12° WSW visible
09 Apr 8.1 20:28:24 10° NW 20:39:28 74° WSW 20:47:59 21° SSE visible
09 Apr 9.4 22:42:15 10° NW 22:49:56 22° W 22:55:46 15° SW visible
10 Apr 8.0 19:52:18 10° NW 20:03:29 88° SW 20:13:37 15° SE visible
10 Apr 9.2 22:05:32 10° NW 22:14:28 29° WSW 22:21:24 16° SSW visible
11 Apr 8.1 19:16:13 10° NW 19:27:23 79° NE 19:39:00 10° SE visible
11 Apr 8.9 21:29:06 10° NW 21:38:54 38° WSW 21:47:05 16° SSW visible
12 Apr 8.6 20:52:50 10° NW 21:03:13 48° WSW 21:12:48 14° S visible
13 Apr 8.4 20:16:39 10° NW 20:27:27 59° WSW 20:38:35 10° SSE visible
13 Apr 9.8 22:31:53 10° WNW 22:37:17 15° W 22:42:48 10° WSW visible
